Temp
-32 -31 -31 -32 -32 -29 -26 -25 -25 -25 -24 -22 -21 -21 -20 -20 -19 -18 -18 -18 -18 -17 -17 -17 -16 -15 -15 -15 -14 -14 -14 -14 -14 -13 -13 -13 -12 -12 -12 -13 -13 -13 -12 -12 -12 -13 -13 -14 -14 -14 -14 -14 -14 -15
-32 -32 -31 -32 -31 -27 -24 -25 -25 -25 -24 -22 -21 -21 -20 -20 -19 -19 -18 -18 -18 -17 -17 -17 -16 -16 -16 -15 -15 -15 -14 -14 -14 -13 -13 -13 -13 -13 -13 -13 -13 -13 -12 -12 -13 -13 -14 -14 -14 -14 -14 -14 -15 -15
-32 -32 -32 -31 -30 -26 -25 -25 -25 -25 -23 -22 -21 -20 -20 -20 -20 -19 -18 -18 -18 -18 -17 -17 -17 -16 -16 -16 -15 -15 -15 -14 -14 -14 -13 -13 -13 -14 -13 -13 -13 -13 -13 -13 -13 -14 -14 -14 -14 -14 -14 -14 -15 -15
-32 -32 -32 -31 -30 -27 -26 -25 -25 -25 -23 -22 -21 -21 -20 -20 -20 -19 -18 -18 -18 -17 -17 -17 -17 -17 -16 -16 -16 -15 -15 -15 -14 -14 -14 -14 -14 -14 -14 -13 -13 -13 -13 -13 -13 -14 -14 -14 -14 -14 -14 -15 -15 -15
-32 -32 -31 -31 -29 -25 -26 -26 -25 -25 -23 -22 -21 -20 -20 -20 -20 -19 -19 -18 -18 -18 -17 -17 -17 -17 -17 -16 -16 -15 -15 -14 -14 -14 -14 -14 -14 -14 -14 -14 -13 -13 -13 -14 -14 -14 -14 -14 -14 -14 -15 -15 -15 -15
-32 -31 -31 -30 -27 -26 -26 -26 -25 -25 -23 -22 -21 -20 -20 -20 -20 -19 -19 -19 -19 -18 -18 -18 -17 -17 -17 -17 -16 -15 -15 -15 -15 -15 -15 -15 -15 -14 -14 -14 -14 -13 -14 -14 -14 -14 -14 -14 -14 -15 -15 -15 -15 -15
-31 -32 -31 -30 -27 -26 -27 -25 -25 -24 -23 -22 -21 -21 -20 -20 -20 -19 -19 -19 -19 -19 -19 -18 -17 -17 -17 -16 -16 -16 -16 -15 -15 -15 -15 -15 -15 -14 -14 -14 -14 -14 -14 -14 -14 -14 -14 -14 -15 -15 -15 -15 -15 -16
-32 -32 -30 -29 -27 -26 -26 -25 -25 -24 -23 -22 -21 -21 -20 -20 -20 -19 -19 -19 -18 -18 -18 -18 -17 -17 -16 -16 -16 -16 -16 -16 -16 -16 -15 -15 -15 -14 -14 -14 -14 -14 -14 -14 -14 -15 -15 -15 -15 -15 -15 -15 -15 -16
-32 -31 -30 -29 -27 -27 -27 -26 -25 -24 -23 -22 -21 -21 -20 -20 -20 -19 -19 -18 -18 -18 -18 -17 -17 -17 -17 -17 -17 -17 -16 -16 -16 -16 -16 -15 -15 -15 -14 -15 -15 -14 -14 -14 -15 -15 -15 -15 -15 -15 -15 -15 -16 -16
-32 -31 -30 -29 -27 -27 -26 -26 -26 -25 -23 -22 -22 -21 -21 -20 -20 -19 -19 -19 -18 -18 -18 -18 -17 -17 -17 -17 -17 -17 -16 -16 -17 -16 -16 -15 -15 -15 -14 -15 -15 -15 -15 -15 -15 -15 -15 -15 -15 -15 -15 -16 -16 -16
-32 -31 -30 -30 -27 -27 -26 -27 -26 -25 -24 -22 -22 -21 -21 -20 -20 -20 -19 -19 -19 -18 -18 -18 -18 -18 -18 -17 -17 -17 -17 -17 -17 -16 -16 -15 -15 -15 -15 -15 -15 -15 -15 -15 -15 -15 -15 -15 -15 -16 -16 -16 -16 -17
-31 -31 -30 -29 -28 -27 -26 -26 -26 -25 -23 -22 -21 -22 -21 -21 -20 -20 -19 -19 -19 -18 -18 -18 -18 -18 -18 -17 -17 -17 -17 -17 -16 -16 -16 -15 -15 -15 -15 -15 -15 -15 -15 -15 -15 -15 -15 -16 -16 -16 -16 -16 -17 -17
-31 -30 -29 -29 -28 -27 -27 -27 -26 -25 -24 -22 -22 -22 -21 -21 -20 -20 -19 -19 -18 -17 -18 -17 -18 -18 -18 -17 -17 -17 -17 -16 -16 -16 -16 -16 -15 -15 -15 -15 -15 -15 -15 -15 -15 -16 -16 -16 -16 -16 -16 -17 -17 -17
-31 -31 -29 -29 -28 -27 -27 -27 -26 -25 -25 -23 -23 -22 -22 -21 -20 -19 -19 -18 -18 -18 -18 -18 -18 -17 -17 -17 -17 -17 -16 -16 -16 -16 -16 -16 -16 -15 -15 -15 -15 -16 -15 -15 -15 -16 -16 -16 -16 -16 -17 -17 -17 -17
-31 -30 -28 -28 -28 -27 -27 -27 -26 -26 -25 -24 -22 -23 -21 -21 -20 -20 -19 -18 -18 -19 -18 -18 -18 -18 -18 -17 -17 -17 -17 -16 -16 -16 -16 -16 -16 -16 -16 -16 -16 -16 -16 -16 -16 -16 -16 -16 -16 -17 -17 -17 -17 -17
-31 -31 -29 -27 -27 -27 -27 -27 -26 -26 -25 -24 -23 -22 -21 -21 -20 -20 -19 -19 -19 -19 -19 -19 -19 -18 -17 -17 -17 -17 -17 -17 -17 -16 -16 -16 -16 -16 -16 -16 -16 -16 -16 -16 -16 -16 -16 -16 -17 -17 -17 -17 -17 -17
-31 -31 -30 -27 -27 -27 -27 -27 -27 -26 -25 -25 -23 -22 -21 -21 -21 -20 -20 -19 -19 -19 -19 -19 -18 -18 -17 -17 -16 -17 -17 -17 -17 -16 -17 -17 -16 -16 -16 -16 -16 -16 -16 -16 -17 -17 -17 -17 -17 -17 -17 -17 -17 -18
-32 -31 -30 -29 -27 -27 -27 -27 -27 -26 -25 -24 -23 -22 -21 -21 -21 -20 -20 -20 -20 -20 -19 -19 -18 -17 -17 -17 -17 -18 -17 -17 -17 -17 -17 -17 -17 -17 -17 -17 -17 -17 -17 -17 -17 -17 -17 -17 -17 -17 -17 -18 -18 -18
-32 -31 -30 -30 -27 -27 -27 -27 -27 -27 -25 -24 -23 -23 -22 -21 -21 -20 -20 -20 -20 -20 -19 -19 -18 -18 -17 -17 -18 -18 -17 -17 -16 -17 -17 -17 -17 -17 -17 -17 -17 -17 -17 -17 -17 -17 -17 -17 -18 -18 -18 -18 -18 -18
-32 -32 -31 -30 -28 -28 -28 -28 -27 -26 -25 -24 -23 -23 -22 -22 -21 -21 -21 -21 -20 -20 -19 -18 -18 -18 -18 -19 -18 -18 -17 -17 -17 -17 -17 -17 -17 -17 -17 -17 -17 -17 -17 -17 -17 -17 -17 -18 -18 -18 -18 -18 -18 -18
-32 -32 -32 -30 -29 -28 -28 -28 -27 -26 -25 -24 -24 -23 -22 -22 -21 -21 -21 -21 -20 -20 -19 -18 -18 -18 -19 -19 -18 -18 -17 -17 -17 -17 -17 -17 -17 -17 -17 -17 -17 -17 -18 -18 -18 -18 -18 -18 -18 -18 -18 -18 -18 -18
-33 -32 -32 -30 -28 -28 -28 -28 -27 -26 -25 -24 -24 -23 -22 -22 -22 -22 -21 -21 -20 -20 -19 -19 -19 -19 -19 -19 -18 -18 -18 -17 -17 -17 -17 -17 -17 -17 -17 -17 -17 -17 -18 -18 -18 -18 -18 -18 -18 -18 -18 -18 -18 -19
-33 -32 -32 -31 -28 -28 -28 -28 -27 -26 -25 -24 -24 -23 -23 -22 -22 -22 -21 -20 -20 -20 -19 -19 -19 -19 -19 -19 -18 -18 -18 -18 -18 -17 -17 -17 -17 -17 -17 -17 -17 -17 -17 -18 -18 -18 -18 -18 -18 -18 -18 -18 -19 -19
-33 -33 -32 -30 -29 -28 -28 -27 -27 -27 -26 -25 -24 -24 -23 -23 -23 -22 -22 -20 -20 -20 -20 -20 -20 -20 -19 -19 -19 -19 -18 -18 -18 -18 -18 -17 -17 -17 -17 -17 -17 -17 -18 -18 -18 -18 -18 -18 -19 -19 -19 -19 -19 -19
-33 -32 -31 -30 -29 -29 -28 -27 -27 -27 -26 -25 -24 -24 -24 -23 -23 -23 -21 -21 -20 -20 -20 -20 -20 -20 -20 -19 -19 -19 -19 -18 -18 -18 -18 -18 -18 -18 -18 -18 -18 -18 -18 -18 -18 -18 -18 -19 -19 -19 -19 -19 -19 -19
-32 -31 -31 -30 -29 -28 -28 -27 -27 -26 -25 -24 -24 -24 -23 -23 -23 -22 -22 -21 -21 -21 -21 -21 -21 -20 -20 -20 -19 -19 -19 -19 -19 -19 -18 -18 -18 -18 -18 -18 -18 -18 -18 -18 -18 -18 -19 -19 -19 -19 -19 -19 -19 -20
-30 -29 -29 -29 -29 -28 -28 -27 -27 -26 -25 -24 -23 -23 -23 -23 -23 -22 -22 -21 -21 -21 -21 -21 -21 -21 -20 -20 -20 -20 -20 -19 -19 -19 -19 -18 -18 -18 -18 -18 -18 -18 -19 -19 -19 -19 -19 -19 -19 -19 -19 -20 -20 -20
-29 -29 -29 -29 -29 -28 -28 -27 -27 -26 -25 -25 -24 -24 -23 -23 -23 -22 -22 -21 -21 -22 -22 -22 -21 -21 -21 -20 -20 -20 -20 -19 -19 -19 -19 -19 -19 -19 -19 -19 -19 -19 -19 -19 -19 -19 -19 -19 -19 -19 -20 -20 -20 -20
-29 -28 -28 -28 -27 -28 -27 -27 -26 -26 -26 -25 -24 -24 -23 -23 -23 -23 -23 -22 -23 -23 -22 -22 -22 -22 -21 -21 -21 -21 -21 -20 -20 -20 -20 -20 -20 -19 -19 -19 -19 -19 -19 -19 -19 -19 -19 -19 -20 -20 -20 -20 -20 -20
-28 -28 -28 -28 -28 -28 -27 -27 -26 -26 -26 -26 -26 -25 -25 -25 -24 -24 -24 -23 -23 -23 -23 -23 -23 -23 -22 -22 -22 -21 -21 -21 -21 -21 -20 -20 -20 -20 -20 -20 -20 -20 -20 -20 -20 -20 -20 -20 -20 -20 -20 -20 -20 -20
-28 -28 -28 -28 -28 -28 -27 -26 -26 -26 -25 -25 -25 -25 -25 -24 -24 -24 -25 -24 -24 -24 -24 -24 -23 -23 -22 -22 -22 -22 -22 -21 -21 -21 -21 -21 -21 -21 -21 -21 -20 -20 -20 -20 -20 -21 -21 -21 -21 -21 -21 -21 -21 -21
-27 -27 -27 -27 -27 -28 -27 -27 -26 -25 -26 -25 -25 -25 -25 -25 -24 -24 -24 -24 -24 -24 -24 -24 -24 -23 -23 -22 -22 -22 -22 -22 -22 -22 -22 -21 -21 -21 -21 -21 -21 -21 -21 -21 -21 -21 -21 -21 -21 -21 -21 -21 -21 -21
-27 -27 -26 -26 -26 -26 -26 -26 -26 -26 -26 -26 -25 -25 -25 -25 -24 -24 -24 -24 -24 -24 -24 -24 -24 -23 -23 -23 -23 -23 -23 -22 -22 -22 -22 -22 -22 -22 -22 -22 -22 -22 -22 -22 -22 -22 -22 -22 -22 -22 -22 -22 -22 -22
Height
5362 5369 5375 5381 5386 5392 5408 5427 5443 5459 5476 5495 5514 5535 5553 5570 5586 5602 5617 5629 5643 5656 5665 5675 5684 5695 5705 5712 5719 5727 5736 5742 5749 5753 5759 5764 5767 5770 5773 5775 5776 5778 5780 5781 5781 5784 5787 5786 5786 5786 5786 5784 5782 5779
5363 5369 5374 5378 5383 5396 5418 5433 5449 5462 5477 5497 5515 5534 5552 5569 5585 5600 5615 5628 5640 5652 5662 5673 5683 5694 5705 5712 5718 5725 5733 5740 5746 5751 5757 5760 5764 5765 5767 5770 5773 5776 5778 5779 5781 5783 5784 5784 5784 5783 5783 5781 5779 5776
5363 5369 5374 5379 5388 5401 5419 5437 5453 5464 5479 5499 5516 5534 5551 5567 5584 5599 5612 5625 5638 5650 5660 5672 5682 5693 5701 5707 5716 5724 5731 5737 5742 5747 5752 5756 5758 5760 5762 5766 5770 5771 5773 5776 5779 5781 5781 5781 5781 5781 5780 5778 5776 5773
5363 5370 5375 5381 5391 5406 5423 5437 5452 5466 5481 5499 5517 5534 5550 5566 5583 5597 5609 5623 5637 5649 5658 5668 5679 5689 5697 5703 5712 5718 5725 5730 5735 5741 5746 5751 5752 5755 5758 5763 5766 5768 5771 5774 5776 5778 5778 5779 5778 5778 5777 5775 5773 5770
5365 5371 5375 5383 5393 5410 5426 5440 5453 5466 5484 5501 5517 5534 5550 5564 5580 5595 5610 5623 5635 5647 5656 5666 5675 5683 5692 5700 5708 5715 5722 5727 5732 5737 5742 5745 5746 5750 5754 5758 5761 5765 5768 5770 5772 5773 5775 5775 5776 5776 5775 5772 5770 5767
5365 5369 5377 5386 5398 5415 5430 5441 5454 5468 5483 5502 5518 5534 5549 5564 5579 5594 5607 5620 5631 5642 5654 5663 5673 5681 5689 5698 5706 5712 5717 5723 5728 5732 5736 5739 5742 5747 5750 5755 5758 5762 5764 5766 5768 5769 5771 5772 5772 5772 5771 5769 5766 5764
5365 5369 5377 5388 5401 5417 5431 5448 5459 5471 5485 5503 5518 5535 5549 5563 5579 5594 5607 5618 5628 5639 5651 5662 5670 5679 5687 5695 5701 5707 5713 5718 5723 5728 5731 5736 5740 5743 5747 5751 5755 5757 5760 5762 5765 5766 5767 5768 5769 5769 5767 5765 5763 5761
5365 5370 5382 5393 5407 5422 5436 5449 5463 5475 5489 5506 5521 5536 5550 5564 5580 5592 5605 5617 5627 5636 5646 5656 5667 5677 5684 5691 5699 5705 5711 5715 5720 5725 5729 5733 5737 5740 5744 5748 5750 5753 5757 5759 5761 5762 5763 5765 5765 5765 5763 5761 5760 5758
5365 5373 5386 5397 5411 5427 5438 5452 5466 5477 5491 5507 5521 5536 5549 5563 5577 5589 5604 5615 5625 5637 5646 5657 5667 5674 5681 5689 5696 5702 5707 5712 5717 5721 5726 5730 5734 5737 5741 5744 5746 5750 5752 5754 5756 5758 5760 5761 5761 5760 5759 5758 5757 5756
5370 5379 5392 5404 5416 5432 5446 5455 5467 5477 5490 5506 5520 5534 5547 5561 5576 5590 5604 5612 5623 5634 5646 5656 5665 5673 5681 5687 5694 5700 5704 5707 5713 5718 5723 5728 5731 5734 5738 5740 5743 5747 5748 5750 5752 5754 5756 5756 5756 5756 5756 5756 5754 5753
5377 5385 5397 5409 5423 5437 5448 5457 5466 5479 5491 5504 5520 5537 5552 5563 5576 5588 5598 5607 5619 5629 5641 5652 5662 5671 5679 5686 5692 5696 5700 5705 5709 5715 5720 5724 5728 5731 5734 5736 5740 5742 5744 5746 5749 5750 5751 5752 5752 5753 5753 5752 5751 5750
5382 5393 5403 5415 5428 5437 5449 5459 5469 5482 5496 5511 5526 5538 5550 5561 5571 5581 5591 5604 5617 5629 5639 5650 5658 5666 5675 5681 5686 5692 5697 5702 5707 5712 5717 5722 5726 5729 5731 5733 5737 5739 5740 5743 5745 5746 5747 5748 5749 5750 5750 5749 5748 5748
5389 5397 5409 5420 5433 5442 5453 5464 5473 5485 5497 5510 5521 5535 5547 5557 5566 5574 5587 5604 5617 5628 5637 5647 5656 5665 5671 5678 5684 5689 5694 5700 5706 5710 5715 5719 5722 5726 5728 5730 5734 5736 5737 5740 5741 5742 5743 5745 5746 5746 5747 5746 5746 5745
5391 5401 5411 5423 5434 5443 5456 5463 5474 5484 5495 5506 5516 5528 5538 5550 5571 5589 5602 5612 5622 5631 5639 5648 5656 5663 5670 5676 5680 5685 5692 5698 5703 5708 5713 5715 5719 5723 5726 5728 5730 5732 5734 5736 5738 5739 5740 5741 5742 5743 5744 5743 5743 5742
5395 5403 5412 5424 5435 5445 5454 5461 5470 5480 5493 5504 5517 5528 5543 5562 5575 5587 5597 5609 5619 5628 5638 5646 5654 5661 5667 5672 5678 5684 5690 5694 5701 5707 5709 5712 5716 5719 5722 5724 5727 5729 5731 5733 5734 5736 5737 5738 5739 5740 5741 5740 5740 5740
5399 5406 5415 5426 5436 5443 5454 5462 5472 5482 5495 5508 5520 5533 5546 5560 5574 5587 5598 5607 5617 5626 5635 5644 5651 5658 5663 5669 5676 5682 5688 5694 5699 5702 5705 5710 5714 5715 5718 5721 5724 5726 5727 5729 5731 5732 5734 5735 5736 5737 5737 5737 5737 5737
5400 5407 5415 5428 5437 5447 5456 5465 5473 5484 5496 5506 5520 5535 5550 5562 5573 5583 5594 5606 5615 5624 5633 5640 5647 5654 5661 5668 5675 5680 5686 5690 5695 5699 5702 5706 5709 5711 5715 5718 5720 5722 5724 5725 5727 5729 5730 5732 5732 5733 5733 5733 5733 5733
5402 5409 5420 5428 5437 5447 5455 5465 5473 5483 5496 5509 5522 5537 5550 5560 5572 5582 5593 5603 5614 5623 5631 5638 5647 5653 5660 5668 5675 5680 5683 5687 5691 5696 5699 5702 5705 5708 5711 5714 5716 5718 5720 5722 5724 5725 5727 5728 5728 5729 5729 5729 5729 5729
5401 5410 5419 5424 5432 5444 5456 5464 5474 5484 5498 5512 5527 5537 5548 5559 5570 5582 5593 5603 5611 5620 5629 5635 5643 5651 5660 5667 5672 5676 5680 5684 5688 5692 5696 5699 5702 5705 5707 5710 5712 5714 5716 5718 5720 5722 5723 5724 5725 5725 5725 5725 5725 5725
5400 5406 5412 5418 5428 5443 5454 5466 5475 5487 5499 5512 5524 5535 5547 5557 5570 5581 5592 5600 5607 5615 5623 5632 5641 5649 5656 5662 5667 5672 5676 5681 5685 5689 5692 5696 5699 5701 5704 5706 5708 5710 5712 5714 5716 5717 5719 5720 5721 5721 5720 5721 5721 5721
5400 5404 5412 5419 5429 5444 5458 5469 5478 5487 5499 5511 5523 5533 5545 5556 5568 5578 5587 5595 5603 5612 5622 5630 5638 5645 5651 5657 5663 5668 5673 5678 5681 5685 5688 5692 5695 5698 5700 5702 5704 5706 5708 5710 5712 5713 5715 5716 5716 5716 5716 5716 5716 5716
5403 5409 5417 5423 5435 5447 5461 5471 5479 5487 5499 5511 5521 5531 5542 5554 5565 5574 5583 5590 5600 5610 5619 5627 5634 5641 5647 5653 5659 5665 5669 5673 5677 5681 5685 5688 5690 5693 5696 5698 5700 5702 5704 5706 5707 5709 5710 5710 5711 5711 5711 5712 5711 5711
5404 5411 5417 5425 5438 5450 5464 5472 5482 5490 5501 5511 5521 5531 5540 5551 5561 5570 5578 5589 5598 5607 5615 5623 5630 5637 5643 5649 5655 5660 5664 5669 5673 5676 5680 5683 5686 5689 5692 5694 5696 5698 5699 5701 5702 5703 5704 5705 5705 5706 5706 5706 5706 5706
5404 5412 5419 5428 5439 5451 5464 5474 5484 5493 5501 5511 5521 5530 5538 5549 5559 5566 5575 5586 5594 5603 5611 5618 5625 5632 5639 5645 5650 5655 5659 5663 5667 5671 5674 5678 5681 5684 5686 5689 5691 5693 5694 5695 5697 5698 5698 5699 5700 5700 5700 5700 5700 5699
5406 5413 5421 5429 5441 5454 5466 5476 5485 5494 5504 5512 5522 5529 5536 5545 5555 5566 5576 5584 5592 5599 5606 5613 5619 5626 5633 5638 5643 5648 5652 5656 5660 5664 5668 5671 5675 5677 5680 5682 5685 5687 5688 5689 5690 5691 5692 5693 5693 5693 5693 5693 5693 5692
5410 5418 5430 5439 5446 5456 5464 5476 5485 5496 5507 5515 5524 5530 5538 5544 5552 5561 5572 5580 5587 5594 5601 5607 5613 5620 5626 5631 5637 5641 5645 5649 5653 5657 5661 5664 5667 5670 5673 5675 5678 5680 5681 5682 5683 5684 5685 5686 5686 5686 5686 5685 5685 5684
5421 5431 5439 5445 5453 5460 5470 5481 5490 5499 5506 5514 5520 5527 5534 5540 5549 5559 5567 5574 5582 5588 5594 5600 5605 5611 5617 5623 5628 5632 5636 5640 5644 5649 5653 5655 5658 5661 5664 5666 5669 5671 5673 5675 5675 5676 5677 5678 5678 5678 5678 5677 5676 5676
5433 5438 5445 5450 5457 5466 5472 5481 5490 5498 5506 5514 5519 5523 5530 5539 5547 5556 5564 5572 5577 5582 5588 5593 5598 5604 5610 5615 5620 5624 5628 5632 5636 5640 5643 5646 5649 5652 5655 5657 5659 5661 5664 5665 5666 5667 5668 5669 5669 5668 5668 5668 5667 5666
5437 5443 5448 5455 5457 5462 5469 5479 5489 5499 5506 5511 5519 5526 5534 5538 5544 5549 5554 5561 5567 5574 5580 5586 5591 5598 5603 5607 5611 5616 5620 5623 5627 5630 5633 5636 5639 5642 5644 5646 5648 5651 5653 5654 5656 5657 5657 5657 5658 5658 5658 5658 5657 5656
5442 5444 5449 5454 5457 5460 5469 5479 5493 5503 5508 5513 5520 5526 5531 5536 5541 5545 5550 5555 5560 5566 5573 5579 5583 5587 5593 5598 5602 5607 5610 5614 5617 5621 5623 5626 5628 5631 5633 5636 5638 5640 5641 5643 5644 5644 5645 5646 5646 5647 5647 5646 5646 5645
5444 5446 5449 5452 5457 5464 5470 5480 5491 5498 5504 5508 5514 5518 5524 5530 5534 5538 5544 5550 5557 5562 5567 5572 5576 5581 5586 5590 5594 5598 5602 5605 5608 5610 5613 5616 5618 5620 5622 5624 5627 5629 5630 5631 5632 5633 5633 5634 5634 5634 5634 5634 5634 5634
5444 5448 5452 5454 5459 5466 5474 5480 5487 5493 5500 5506 5511 5514 5520 5525 5529 5533 5538 5544 5549 5555 5559 5564 5569 5573 5577 5581 5584 5588 5591 5594 5597 5600 5603 5606 5608 5610 5611 5613 5614 5616 5618 5619 5620 5621 5621 5622 5622 5622 5622 5622 5621 5621
5447 5449 5453 5459 5465 5469 5475 5480 5486 5491 5496 5501 5506 5512 5516 5522 5526 5530 5535 5538 5543 5547 5552 5555 5559 5564 5568 5571 5574 5577 5580 5583 5586 5588 5591 5594 5596 5598 5600 5602 5603 5604 5606 5607 5607 5608 5609 5609 5610 5610 5610 5609 5609 5608
Wind_Speed
29 20 27 22 22 44 77 73 66 67 76 84 83 78 75 73 68 64 60 57 53 49 48 50 46 45 43 41 41 41 38 35 31 29 25 21 21 18 17 19 19 17 15 14 11 8 6 7 7 8 11 13 15 19
27 21 27 19 28 65 96 67 58 64 78 82 82 78 75 72 67 61 60 56 53 52 49 51 49 39 37 38 39 37 35 31 30 28 21 21 20 20 20 20 18 16 14 9 8 6 8 8 7 10 13 15 17 20
26 21 17 22 41 75 78 66 55 67 79 82 81 78 75 70 66 61 59 57 54 52 49 48 48 41 41 40 37 33 31 30 26 24 23 22 21 22 21 19 18 16 13 11 11 8 8 8 10 11 14 16 18 20
22 19 14 34 47 75 66 58 52 62 80 81 80 78 76 69 67 64 60 58 55 54 50 48 44 45 42 39 36 34 32 28 26 23 21 20 23 25 21 19 18 16 14 12 11 10 11 9 9 11 13 15 18 20
20 15 17 38 57 80 67 50 56 62 78 81 79 78 74 71 70 65 62 58 56 53 50 49 47 49 45 40 37 35 29 26 24 22 21 24 26 25 22 20 18 16 15 14 13 14 10 10 9 11 12 15 17 17
17 13 25 42 68 68 56 42 44 54 77 80 76 77 74 73 72 68 62 59 57 53 49 47 46 46 44 39 35 29 25 24 21 21 23 26 24 23 22 21 18 16 17 16 17 15 12 10 11 11 14 16 16 16
17 19 34 48 67 72 53 46 49 59 77 77 73 75 74 75 72 66 65 61 62 59 51 50 47 45 42 38 31 27 24 24 26 28 26 21 20 19 20 19 17 19 18 17 16 15 11 12 11 13 15 15 14 15
21 26 46 54 70 70 47 52 48 63 76 74 69 74 72 74 71 65 64 60 60 64 59 56 51 47 44 37 30 26 23 26 28 27 24 24 21 20 18 16 18 18 17 17 16 13 13 12 12 14 14 13 13 15
24 36 51 53 70 55 42 51 49 64 74 74 65 71 70 72 71 68 52 54 58 58 58 53 46 49 41 34 27 24 22 28 29 26 23 21 19 18 15 16 18 17 16 15 14 14 13 12 13 13 11 11 12 14
25 45 53 57 68 54 43 46 52 61 73 76 63 68 71 69 69 63 54 52 48 56 52 46 43 43 37 31 26 22 20 25 32 27 26 22 21 16 14 16 17 14 15 15 14 12 12 13 12 10 11 11 12 12
36 44 52 50 66 58 41 45 53 62 72 78 65 64 66 67 66 64 60 55 51 48 49 43 43 38 34 27 23 23 22 24 28 29 27 23 19 15 14 16 14 14 15 13 12 13 12 10 10 11 10 10 10 10
41 50 49 59 56 56 47 45 49 63 70 79 64 64 66 67 66 66 57 51 50 48 47 47 43 40 35 31 31 28 25 26 27 24 24 21 18 16 16 15 12 11 12 12 11 10 11 11 11 10 9 9 9 8
46 48 53 54 61 52 42 41 50 61 65 74 70 63 65 67 68 66 63 55 51 49 47 47 42 37 33 31 29 28 27 26 25 25 23 21 19 16 15 13 11 12 13 12 13 12 11 10 9 10 8 10 8 6
41 46 55 54 66 52 43 41 43 58 64 68 74 65 63 70 66 56 54 49 46 45 43 40 37 33 30 29 32 30 27 25 25 23 22 21 18 16 15 12 12 12 11 11 10 10 10 10 10 9 9 9 9 6
45 48 63 66 65 61 55 49 48 57 65 66 73 68 60 60 59 58 56 51 46 44 42 40 35 33 32 31 30 27 26 27 23 22 23 21 16 15 15 14 13 14 12 11 12 12 12 10 10 10 10 10 10 8
42 44 59 64 57 63 58 50 52 55 62 64 67 69 62 61 60 57 56 52 48 46 43 38 34 37 35 32 28 26 25 22 23 25 23 18 16 18 17 13 12 11 11 12 12 12 11 11 11 11 11 12 12 10
48 50 53 83 58 63 61 50 48 54 62 64 65 68 68 61 58 58 56 53 50 46 43 42 39 39 34 30 27 24 22 23 22 21 19 18 19 19 17 15 14 13 13 13 13 13 12 12 12 12 13 13 14 13
35 45 58 70 73 63 52 55 51 53 60 64 64 64 66 66 62 58 56 51 46 43 41 41 39 36 32 28 23 21 22 22 21 20 19 19 19 17 17 16 15 14 14 13 13 13 12 13 13 13 14 15 17 17
31 37 51 64 74 61 52 48 52 51 60 62 62 62 63 62 60 58 53 48 45 41 41 41 40 36 32 27 23 24 24 22 21 21 19 19 18 16 16 15 15 15 13 13 14 13 13 14 14 14 16 17 18 19
34 36 44 65 79 65 55 41 53 52 59 64 64 63 61 60 57 53 49 46 44 45 45 43 40 36 31 27 28 27 24 22 20 20 19 18 18 16 16 15 15 14 13 14 13 14 15 15 15 16 17 16 17 19
36 36 41 58 71 66 58 43 51 52 60 64 64 64 61 59 56 51 50 48 45 43 44 43 39 36 32 31 30 28 25 21 19 19 18 17 15 14 14 14 13 13 14 14 14 15 15 17 17 16 16 16 17 18
36 36 37 57 71 71 64 49 49 51 61 65 63 63 62 59 53 49 48 48 47 44 43 41 38 36 35 33 31 29 25 23 20 18 18 18 18 17 16 15 14 14 14 14 14 15 16 16 15 15 16 17 18 18
34 37 38 50 67 69 61 47 41 44 53 60 61 59 60 58 54 51 52 44 42 44 46 43 40 39 36 34 31 29 27 24 23 21 19 19 19 18 18 16 15 14 14 15 16 16 16 15 15 16 17 18 19 19
32 36 40 45 55 58 56 55 45 37 44 53 57 58 57 51 51 52 50 54 44 39 42 44 43 41 39 36 34 31 29 27 25 23 23 22 22 22 21 20 19 17 16 17 18 18 18 19 18 19 20 21 21 21
34 39 44 58 57 54 56 60 52 43 42 48 55 53 51 53 52 54 50 45 46 36 43 43 42 42 40 38 37 35 33 30 29 28 26 25 25 25 25 24 22 21 21 21 21 22 22 21 22 22 24 24 24 25
35 38 52 53 60 57 58 64 55 50 46 46 39 40 43 51 49 49 52 49 48 43 38 39 42 42 41 40 38 36 34 32 31 30 29 28 28 28 29 28 26 26 26 26 25 25 25 26 25 26 27 27 28 28
54 38 33 39 49 55 57 60 57 55 54 54 41 45 51 42 44 50 47 48 47 46 44 42 43 44 43 42 40 38 35 34 34 33 33 33 33 31 31 30 30 31 30 30 30 29 29 28 29 29 30 30 30 31
22 17 23 30 47 49 47 55 61 55 52 52 51 43 39 38 35 46 50 48 43 43 43 42 43 45 44 42 40 38 37 37 36 36 36 36 34 33 32 32 33 34 34 34 33 33 32 32 32 33 33 33 33 34
16 22 33 38 33 35 41 52 59 58 57 58 46 45 56 37 32 26 38 51 50 45 44 42 42 42 43 42 42 41 40 40 39 38 38 37 36 35 35 36 36 36 36 36 36 36 37 37 37 37 37 36 36 35
34 18 25 30 34 38 52 51 47 46 44 40 37 34 32 32 32 33 29 30 41 44 44 43 43 44 44 44 44 43 42 41 41 40 40 40 40 40 39 38 38 37 38 38 38 39 39 39 39 39 39 39 38 38
18 12 20 34 39 45 53 59 44 40 43 42 36 40 39 36 31 31 32 34 35 36 39 40 40 42 43 43 43 43 42 42 41 40 41 40 39 39 39 38 38 38 39 40 40 41 41 41 41 40 40 40 40 40
14 11 18 28 42 39 39 40 43 32 25 33 48 37 33 36 37 35 35 42 46 47 45 44 43 43 43 43 43 42 42 41 41 40 40 40 39 40 40 41 41 41 41 41 41 41 41 42 42 42 41 41 41 41
11 11 28 34 36 32 30 29 34 35 31 27 35 44 40 37 37 38 39 39 40 41 43 45 46 46 45 45 44 42 41 41 41 41 42 42 42 42 42 42 42 42 42 42 43 43 43 42 43 43 43 43 43 43
Wind_Direction
178 182 191 204 209 183 180 165 159 167 177 174 174 175 177 178 179 181 181 185 187 188 184 193 196 197 196 192 197 200 198 199 205 214 223 230 241 249 251 243 238 244 253 262 244 184 180 234 274 299 309 319 322 324
182 189 197 214 176 176 169 164 163 171 175 174 172 175 176 177 178 178 179 182 185 185 183 191 198 191 187 189 193 194 200 206 212 220 222 237 247 248 245 239 236 240 247 237 202 196 207 237 264 290 307 312 318 323
187 185 193 173 162 177 174 177 167 175 174 173 172 175 175 176 177 176 178 183 182 182 184 186 191 187 183 189 193 198 200 208 215 222 230 236 241 241 238 232 228 231 228 207 211 212 225 245 273 295 300 310 320 324
189 190 186 169 171 178 157 156 163 171 173 172 173 175 176 174 175 175 178 181 182 183 183 182 185 184 183 188 191 196 199 205 216 226 230 233 229 231 228 224 224 230 229 222 217 222 233 250 273 290 301 315 323 323
193 194 179 175 180 168 171 164 164 169 173 172 175 175 175 173 175 176 179 180 180 183 182 183 183 182 184 190 195 200 204 215 225 231 232 221 222 223 220 217 222 222 215 213 219 233 239 250 272 286 304 318 321 322
203 206 179 175 175 161 151 148 152 170 174 172 176 176 175 175 176 177 177 179 180 181 181 182 188 191 187 192 197 203 209 219 222 219 215 213 216 219 218 220 221 224 222 220 228 241 252 260 276 292 309 318 318 323
213 193 177 177 173 164 159 157 166 175 174 172 177 178 176 177 178 182 181 182 182 179 182 185 185 188 191 194 198 201 206 213 214 207 203 205 210 217 221 223 219 220 222 227 232 239 248 258 276 294 307 313 316 324
195 181 175 178 173 166 152 155 165 175 174 172 176 179 179 179 178 182 184 187 190 187 185 188 189 191 195 196 197 199 202 208 207 202 211 216 213 222 223 222 223 224 223 226 234 236 245 263 279 296 302 306 317 323
183 169 174 178 171 158 150 158 168 175 175 173 175 181 180 181 180 180 177 191 196 194 190 191 196 198 193 191 192 196 202 208 210 209 203 205 209 222 213 214 220 219 225 226 226 236 251 266 283 287 294 305 315 320
164 169 172 174 177 154 159 164 171 177 176 175 173 181 182 181 184 179 184 190 193 196 189 193 199 195 196 195 196 199 208 212 208 209 200 204 215 217 206 213 219 215 218 222 232 244 259 267 270 282 289 303 308 321
164 167 171 171 172 166 159 174 175 175 178 176 172 177 184 182 180 182 184 189 189 189 190 193 191 185 186 191 197 205 205 203 204 208 206 204 211 207 203 213 214 212 221 231 237 244 252 256 265 275 288 296 307 323
164 166 162 169 175 163 156 161 180 175 178 178 169 175 182 183 181 183 181 181 185 187 186 181 182 183 187 194 201 199 198 195 194 195 199 199 203 202 204 213 206 205 218 222 225 232 243 253 266 276 283 293 308 311
169 159 157 168 170 174 162 168 179 178 176 180 176 173 182 184 183 183 183 181 182 183 185 185 184 186 192 197 199 200 196 193 194 198 196 201 200 197 204 209 204 213 220 227 232 238 246 255 262 267 276 290 295 282
167 170 166 162 172 175 169 185 180 182 180 182 184 175 182 185 184 187 183 181 180 180 184 187 189 194 196 200 198 197 199 199 201 198 198 204 203 198 202 202 199 210 217 227 234 236 239 246 255 262 273 279 276 267
173 171 162 160 174 179 168 172 177 186 185 185 186 185 180 178 180 183 185 186 183 184 189 192 194 197 197 199 199 200 202 204 199 198 208 207 203 203 207 211 214 223 226 228 231 236 241 243 250 260 270 269 256 263
180 183 174 163 177 177 183 181 180 184 186 185 188 187 178 177 180 184 187 188 188 187 190 193 200 197 194 195 195 198 202 198 197 205 214 211 205 210 211 212 218 223 221 224 228 233 236 243 251 259 263 266 248 262
182 185 180 177 156 161 170 171 175 180 186 186 186 186 186 180 179 184 186 190 192 193 194 196 195 193 192 192 192 193 193 194 198 202 206 208 212 217 216 216 218 223 227 229 230 235 242 247 249 258 260 266 250 261
177 183 186 187 179 162 155 163 169 179 183 185 185 185 187 190 189 192 192 193 195 194 194 195 194 192 190 189 187 184 189 194 198 201 204 210 216 218 220 221 223 226 227 230 232 237 239 241 254 253 267 268 254 262
176 179 188 196 185 173 167 159 171 177 182 183 183 186 188 190 192 193 195 193 195 194 194 192 191 191 189 184 180 183 189 193 195 200 204 208 212 213 216 218 221 222 221 226 232 236 241 249 249 259 278 272 261 267
182 180 188 196 190 179 169 166 174 179 181 183 184 187 189 191 190 189 190 192 194 193 191 192 190 187 186 184 185 188 191 194 197 201 207 210 214 217 220 221 226 225 221 226 232 235 241 246 254 274 274 269 271 276
184 185 187 196 195 183 170 168 173 175 182 183 185 188 190 191 191 189 190 193 194 194 193 190 190 191 191 190 193 193 194 193 198 206 212 216 219 222 225 227 226 220 220 222 230 239 247 256 268 268 267 268 273 280
184 186 182 196 191 184 180 179 167 168 179 184 186 189 191 191 190 191 191 196 196 194 193 193 193 194 193 191 194 196 196 198 201 209 215 218 220 226 230 231 230 226 224 226 234 244 256 265 266 265 265 269 274 281
183 183 181 195 194 189 183 166 163 171 177 183 187 190 193 193 192 192 193 193 196 198 199 198 199 197 197 195 196 197 200 203 206 210 217 223 226 229 231 233 236 236 235 235 241 250 259 264 263 264 266 270 275 280
177 182 179 185 192 192 185 177 176 177 182 187 189 192 195 191 192 194 196 196 198 200 201 202 204 203 203 201 201 203 205 209 214 217 221 226 229 230 232 235 238 241 243 243 247 254 258 261 264 266 267 271 275 279
174 175 173 165 169 170 184 184 182 179 186 192 192 192 197 196 194 190 185 190 194 193 197 199 202 204 204 204 205 205 209 212 217 221 225 230 234 235 234 235 238 240 243 245 249 254 260 264 264 267 270 272 276 279
167 166 162 165 170 170 184 185 176 173 172 171 174 192 203 202 197 196 196 198 201 203 204 203 206 208 208 209 210 209 211 214 220 224 228 232 236 239 240 241 242 242 244 247 251 255 258 262 266 269 271 273 276 278
139 131 136 167 175 177 176 185 182 177 175 173 172 176 191 205 208 195 182 188 193 198 202 205 206 209 211 212 214 214 215 219 224 227 231 234 236 239 243 245 246 246 248 250 252 255 259 262 265 268 271 274 275 277
125 135 156 155 175 185 178 190 195 189 186 188 199 199 181 174 186 202 205 204 208 210 207 209 209 209 211 213 216 218 221 223 225 227 231 235 239 242 245 246 247 248 251 253 257 259 260 263 264 266 268 271 273 276
115 130 148 164 180 190 192 196 199 195 196 197 189 191 200 192 200 191 195 205 209 210 208 209 211 213 213 214 217 220 222 226 229 232 235 238 240 242 244 247 250 252 254 256 258 259 259 261 263 266 268 270 273 275
168 129 160 194 187 187 182 176 185 197 206 212 216 213 209 210 211 215 213 204 203 206 208 210 213 214 214 217 220 223 226 230 233 235 238 240 242 244 247 251 253 254 255 256 257 259 261 263 265 267 269 271 272 274
182 133 143 186 185 183 182 171 175 182 190 195 194 192 196 201 200 205 213 220 220 210 208 210 213 217 220 223 226 228 230 232 233 235 239 242 246 249 252 254 256 257 258 258 259 260 263 265 267 268 269 271 273 275
218 213 147 151 178 183 188 196 185 176 191 194 189 191 200 203 206 213 215 215 219 221 221 218 218 220 222 224 227 230 233 236 238 240 243 244 247 249 252 254 256 258 260 261 263 264 265 266 267 269 270 273 275 277
260 181 156 164 177 189 200 202 209 214 219 215 203 206 210 212 215 215 217 219 219 220 223 224 225 225 227 229 232 233 235 236 238 241 243 244 247 249 251 254 257 259 261 262 263 264 265 267 270 271 274 276 278 280